CW8399 Weather Reports


time (UTC)temp
C
wind
direction
speed
KPH
gust
KPH
rain 1hr
cm
rain 24hr
cm
rain mn
cm
humidity
%
barometer
mb
20260502163020 24 0 1.6 4.8 0.00 0.00 0.00
20260502162505 23 0 0.0 1.6 0.00 0.00 0.00
20260502162028 23 349 0.0 3.2 0.00 0.00 0.00
20260502161521 23 0 0.0 6.4 0.00 0.00 0.00
20260502161021 23 0 1.6 6.4 0.00 0.00 0.00
20260502160522 22 359 1.6 8.0 0.00 0.00 0.00
20260502152024 21 0 0.0 3.2 0.00 0.00 0.00
20260502151514 20 357 0.0 1.6 0.00 0.00 0.00
20260502151019 20 0 0.0 1.6 0.00 0.00 0.00
20260502150521 20 357 0.0 1.6 0.00 0.00 0.00
20260502130511 17 0 0.0 0.0 0.00 0.00 0.00
20260502123522 17 0 0.0 0.0 0.00 0.00 0.00
20260502123021 17 0 0.0 0.0 0.00 0.00 0.00
20260502121516 18 0 0.0 1.6 0.00 0.00 0.00
20260502121017 18 0 0.0 0.0 0.00 0.00 0.00
20260502120520 18 0 0.0 1.6 0.00 0.00 0.00
20260502115504 18 0 0.0 0.0 0.00 0.00 0.00
20260502115026 18 278 0.0 1.6 0.00 0.00 0.00
20260502114517 18 222 0.0 1.6 0.00 0.00 0.00
20260502113006 18 325 0.0 1.6 0.00 0.00 0.00
20260502112505 18 0 0.0 1.6 0.00 0.00 0.00
20260502112027 18 0 0.0 1.6 0.00 0.00 0.00
20260502111516 18 0 0.0 1.6 0.00 0.00 0.00
20260502111015 18 355 0.0 1.6 0.00 0.00 0.00
20260502110508 19 314 0.0 1.6 0.00 0.00 0.00
20260502110009 19 254 0.0 0.0 0.00 0.00 0.00
20260502105510 19 0 0.0 0.0 0.00 0.00 0.00
20260502105031 20 344 0.0 0.0 0.00 0.00 0.00
20260502104523 20 339 0.0 0.0 0.00 0.00 0.00
20260502104023 20 353 0.0 0.0 0.00 0.00 0.00
20260502103524 20 107 0.0 0.0 0.00 0.00 0.00
20260502103005 20 176 0.0 0.0 0.00 0.00 0.00
20260502101503 20 313 0.0 0.0 0.00 0.00 0.00
20260502100512 21 0 0.0 0.0 0.00 0.00 0.00
20260502091013 21 0 0.0 1.6 0.00 0.00 0.00
20260502071513 22 0 0.0 14.5 0.00 0.00 0.00
20260502071011 22 0 0.0 14.5 0.00 0.00 0.00
20260502070511 23 345 1.6 9.7 0.00 0.00 0.00
20260502065509 23 0 1.6 9.7 0.00 0.00 0.00
20260502065030 23 357 3.2 9.7 0.00 0.00 0.00
20260502064522 23 0 0.0 14.5 0.00 0.00 0.00
20260502063505 23 0 4.8 12.9 0.00 0.00 0.00
20260502063004 23 0 1.6 14.5 0.00 0.00 0.00
20260502062505 23 0 6.4 17.7 0.00 0.00 0.00
20260502062028 23 0 4.8 17.7 0.00 0.00 0.00
20260502061519 23 0 8.0 17.7 0.00 0.00 0.00
20260502061019 23 0 4.8 16.1 0.00 0.00 0.00
20260502060504 23 0 4.8 16.1 0.00 0.00 0.00
20260502060005 23 0 8.0 16.1 0.00 0.00 0.00
20260502055031 24 344 6.4 16.1 0.00 0.00 0.00
20260502054504 24 355 3.2 14.5 0.00 0.00 0.00
20260502054004 24 0 8.0 16.1 0.00 0.00 0.00
20260502053507 24 356 6.4 19.3 0.00 0.00 0.00
20260502053007 24 0 9.7 19.3 0.00 0.00 0.00
20260502052506 24 352 9.7 22.5 0.00 0.00 0.00
20260502051531 24 359 9.7 20.9 0.00 0.00 0.00
20260502051020 25 331 6.4 20.9 0.00 0.00 0.00
20260502050520 25 359 6.4 19.3 0.00 0.00 0.00
20260502050021 25 0 11.3 20.9 0.00 0.00 0.00
20260502045522 25 0 9.7 20.9 0.00 0.00 0.00
20260502045013 25 0 8.0 19.3 0.00 0.00 0.00
20260502044519 25 355 3.2 16.1 0.00 0.00 0.00
20260502044017 25 355 9.7 19.3 0.00 0.00 0.00
20260502043516 25 0 8.0 19.3 0.00 0.00 0.00
20260502043019 25 354 6.4 16.1 0.00 0.00 0.00
20260502042520 25 343 3.2 11.3 0.00 0.00 0.00
20260502042022 25 0 3.2 14.5 0.00 0.00 0.00
20260502041513 25 354 6.4 16.1 0.00 0.00 0.00
20260502041012 25 350 8.0 16.1 0.00 0.00 0.00
20260502040514 25 347 6.4 16.1 0.00 0.00 0.00
20260502040015 25 339 8.0 16.1 0.00 0.00 0.00
20260502035022 25 359 3.2 14.5 0.00 0.00 0.00
20260502034512 26 357 4.8 14.5 0.00 0.00 0.00
20260502034010 26 358 4.8 14.5 0.00 0.00 0.00
20260502033513 26 315 4.8 14.5 0.00 0.00 0.00
20260502033014 26 0 1.6 11.3 0.00 0.00 0.00
20260502032514 26 16 3.2 12.9 0.00 0.00 0.00
20260502032015 26 0 4.8 12.9 0.00 0.00 0.00
20260502031506 26 0 4.8 16.1 0.00 0.00 0.00
20260502031007 26 357 8.0 16.1 0.00 0.00 0.00
20260502030509 26 0 6.4 12.9 0.00 0.00 0.00
20260502030013 26 0 6.4 12.9 0.00 0.00 0.00
20260502025513 27 356 3.2 14.5 0.00 0.00 0.00
20260502025015 27 0 6.4 14.5 0.00 0.00 0.00
20260502024506 27 0 4.8 17.7 0.00 0.00 0.00
20260502024006 27 359 3.2 19.3 0.00 0.00 0.00
20260502023507 27 354 11.3 19.3 0.00 0.00 0.00
20260502023011 27 359 8.0 14.5 0.00 0.00 0.00
20260502022510 27 0 0.0 9.7 0.00 0.00 0.00
20260502022015 27 0 0.0 9.7 0.00 0.00 0.00
20260502021505 28 353 4.8 14.5 0.00 0.00 0.00
20260502021005 28 343 4.8 14.5 0.00 0.00 0.00
20260502020506 28 355 3.2 12.9 0.00 0.00 0.00
20260502020006 28 0 0.0 27.4 0.00 0.00 0.00
20260502015507 28 357 17.7 27.4 0.00 0.00 0.00
20260502015008 28 356 8.0 22.5 0.00 0.00 0.00
20260502014529 29 352 6.4 20.9 0.00 0.00 0.00
20260502014020 29 359 6.4 20.9 0.00 0.00 0.00
20260502013522 29 0 9.7 19.3 0.00 0.00 0.00
20260502013023 30 0 9.7 22.5 0.00 0.00 0.00
20260502012505 30 0 12.9 22.5 0.00 0.00 0.00
20260502012028 30 354 9.7 20.9 0.00 0.00 0.00
20260502011519 30 0 9.7 19.3 0.00 0.00 0.00
20260502010505 30 0 4.8 27.4 0.00 0.00 0.00
20260502010008 30 358 0.0 14.5 0.00 0.00 0.00
20260502005509 30 0 3.2 17.7 0.00 0.00 0.00
20260502005012 30 0 9.7 25.7 0.00 0.00 0.00
20260502004524 30 0 16.1 25.7 0.00 0.00 0.00
20260502004021 30 0 9.7 22.5 0.00 0.00 0.00
20260502003522 30 354 4.8 12.9 0.00 0.00 0.00
20260502003021 30 359 8.0 17.7 0.00 0.00 0.00
20260502002524 30 344 3.2 17.7 0.00 0.00 0.00
20260502002027 30 356 1.6 17.7 0.00 0.00 0.00
20260502001503 30 0 14.5 17.7 0.00 0.00 0.00
20260502001006 30 346 6.4 19.3 0.00 0.00 0.00
20260502000506 30 359 11.3 16.1 0.00 0.00 0.00
20260502000007 30 8 4.8 19.3 0.00 0.00 0.00
20260501235508 30 297 4.8 19.3 0.00 0.00 0.00
20260501235013 30 0 1.6 14.5 0.00 0.00 0.00
20260501234524 30 0 1.6 11.3 0.00 0.00 0.00
20260501234004 30 0 0.0 14.5 0.00 0.00 0.00
20260501233506 30 0 1.6 14.5 0.00 0.00 0.00
20260501233010 30 0 0.0 12.9 0.00 0.00 0.00
20260501232514 30 0 4.8 14.5 0.00 0.00 0.00
20260501232014 30 358 6.4 14.5 0.00 0.00 0.00
20260501231505 30 0 1.6 14.5 0.00 0.00 0.00
20260501231011 30 0 3.2 29.0 0.00 0.00 0.00
20260501230016 30 346 16.1 24.1 0.00 0.00 0.00
20260501225518 30 359 11.3 17.7 0.00 0.00 0.00
20260501225019 30 359 6.4 20.9 0.00 0.00 0.00
20260501224509 30 0 8.0 20.9 0.00 0.00 0.00
20260501224007 30 359 9.7 25.7 0.00 0.00 0.00
20260501223509 30 0 16.1 25.7 0.00 0.00 0.00
20260501222513 30 354 8.0 20.9 0.00 0.00 0.00
20260501222016 30 0 9.7 20.9 0.00 0.00 0.00
20260501221508 30 357 8.0 20.9 0.00 0.00 0.00
20260501221009 30 0 4.8 22.5 0.00 0.00 0.00
20260501220508 30 0 9.7 22.5 0.00 0.00 0.00
20260501220008 30 351 4.8 25.7 0.00 0.00 0.00
20260501215512 30 0 11.3 25.7 0.00 0.00 0.00
20260501215015 30 343 16.1 24.1 0.00 0.00 0.00
20260501214507 30 357 4.8 19.3 0.00 0.00 0.00
20260501214008 30 358 8.0 19.3 0.00 0.00 0.00
20260501213507 30 347 9.7 17.7 0.00 0.00 0.00
20260501213008 30 356 3.2 12.9 0.00 0.00 0.00
20260501212510 30 343 6.4 12.9 0.00 0.00 0.00
20260501212011 30 343 1.6 14.5 0.00 0.00 0.00
20260501211004 30 0 0.0 12.9 0.00 0.00 0.00
20260501210506 30 357 4.8 12.9 0.00 0.00 0.00
20260501210006 30 357 6.4 11.3 0.00 0.00 0.00
20260501205510 30 0 0.0 4.8 0.00 0.00 0.00
20260501205030 30 0 0.0 12.9 0.00 0.00 0.00
20260501204006 30 344 6.4 14.5 0.00 0.00 0.00
20260501203506 30 0 4.8 14.5 0.00 0.00 0.00
20260501203009 30 0 3.2 16.1 0.00 0.00 0.00
20260501202509 30 359 8.0 16.1 0.00 0.00 0.00
20260501202030 30 353 8.0 16.1 0.00 0.00 0.00
20260501201522 30 323 6.4 14.5 0.00 0.00 0.00
20260501201021 29 357 1.6 11.3 0.00 0.00 0.00
20260501200004 28 283 3.2 16.1 0.00 0.00 0.00
20260501195505 28 0 0.0 9.7 0.00 0.00 0.00
20260501195027 28 0 0.0 6.4 0.00 0.00 0.00
20260501194520 28 0 0.0 9.7 0.00 0.00 0.00
20260501194021 28 353 3.2 11.3 0.00 0.00 0.00
20260501193519 28 0 3.2 11.3 0.00 0.00 0.00
20260501193004 28 356 0.0 1.6 0.00 0.00 0.00
20260501192508 27 0 0.0 11.3 0.00 0.00 0.00
20260501192030 27 359 4.8 11.3 0.00 0.00 0.00
20260501191505 27 0 1.6 4.8 0.00 0.00 0.00
20260501191007 27 0 1.6 9.7 0.00 0.00 0.00
20260501185513 27 0 4.8 16.1 0.00 0.00 0.00
20260501185033 27 0 0.0 8.0 0.00 0.00 0.00
20260501184504 27 0 0.0 3.2 0.00 0.00 0.00
20260501184006 27 226 0.0 8.0 0.00 0.00 0.00
20260501183506 27 0 0.0 8.0 0.00 0.00 0.00
20260501183005 27 0 0.0 9.7 0.00 0.00 0.00
20260501182505 27 0 3.2 14.5 0.00 0.00 0.00
20260501182026 27 0 4.8 14.5 0.00 0.00 0.00
20260501181518 27 358 0.0 9.7 0.00 0.00 0.00
20260501180507 27 337 0.0 4.8 0.00 0.00 0.00
20260501180007 27 0 0.0 4.8 0.00 0.00 0.00
20260501175014 27 0 1.6 6.4 0.00 0.00 0.00
20260501174504 27 0 0.0 6.4 0.00 0.00 0.00
20260501173509 26 350 1.6 4.8 0.00 0.00 0.00
20260501173011 26 349 0.0 6.4 0.00 0.00 0.00
20260501172015 26 261 0.0 1.6 0.00 0.00 0.00
20260501171505 26 0 0.0 1.6 0.00 0.00 0.00
20260501171006 26 0 0.0 1.6 0.00 0.00 0.00
20260501170508 25 334 0.0 6.4 0.00 0.00 0.00
20260501170008 25 357 3.2 11.3 0.00 0.00 0.00
20260501164508 25 0 3.2 8.0 0.00 0.00 0.00
20260501164015 24 337 0.0 8.0 0.00 0.00 0.00
20260501163515 24 0 1.6 4.8 0.00 0.00 0.00